When you browse on this site, cookies collect data to enhance your experience and personalize the content and advertising you see.
Visit our Privacy Policy to learn more. By continuing to use the site, you agree to this use of cookies and data.
  • In United Kingdom
  • List of Countries
  • For 7 days
  • Water Temperature
  • Weather Map
  • Weather Widgets
  • user-avatar
    Login

    Hourly Weather Cobija

    Today, 22 February, Saturday

    Time Temperature Precipitation Wind Pressure Humidity
    00:00 +24°C° 0.6 mm 1 mps 739 mmHg 99%
    01:00 +22°C° 0.6 mm 0 mps 739 mmHg 99%
    02:00 +24°C° 0.1 mm 1 mps 738 mmHg 99%
    03:00 +24°C° 0.1 mm 1 mps 738 mmHg 99%
    04:00 +25°C° 0.1 mm 1 mps 738 mmHg 99%
    05:00 +24°C° 0.8 mm 1 mps 739 mmHg 98%
    06:00 +24°C° 0.8 mm 2 mps 739 mmHg 98%
    07:00 +24°C° 0.8 mm 2 mps 740 mmHg 97%
    08:00 +25°C° 0.1 mm 2 mps 740 mmHg 94%
    09:00 +25°C° 0.1 mm 2 mps 741 mmHg 90%
    10:00 +25°C° 0.1 mm 2 mps 741 mmHg 87%
    11:00 +26°C° 0 mm 2 mps 741 mmHg 82%
    12:00 +26°C° 0 mm 2 mps 740 mmHg 78%
    13:00 +27°C° 0 mm 2 mps 740 mmHg 73%
    14:00 +26°C° 0 mm 2 mps 740 mmHg 73%
    15:00 +26°C° 0 mm 2 mps 739 mmHg 72%
    16:00 +25°C° 0 mm 2 mps 739 mmHg 72%
    17:00 +25°C° 0 mm 2 mps 739 mmHg 72%
    18:00 +24°C° 0 mm 1 mps 740 mmHg 71%
    19:00 +24°C° 0 mm 1 mps 740 mmHg 71%
    20:00 +23°C° 0 mm 1 mps 740 mmHg 71%
    21:00 +23°C° 0 mm 1 mps 741 mmHg 70%
    22:00 +23°C° 0 mm 1 mps 741 mmHg 70%
    23:00 +22°C° 0 mm 1 mps 741 mmHg 71%

    Tomorrow, 23 February, Sunday

    Time Temperature Precipitation Wind Pressure Humidity
    00:00 +22°C° 0 mm 1 mps 740 mmHg 72%
    01:00 +21°C° 0 mm 1 mps 740 mmHg 73%
    02:00 +21°C° 0 mm 1 mps 740 mmHg 72%
    03:00 +21°C° 0 mm 1 mps 739 mmHg 71%
    04:00 +21°C° 0 mm 1 mps 739 mmHg 71%
    05:00 +21°C° 0 mm 1 mps 740 mmHg 71%
    06:00 +22°C° 0 mm 1 mps 740 mmHg 72%
    07:00 +22°C° 0 mm 1 mps 740 mmHg 72%
    08:00 +24°C° 0 mm 1 mps 741 mmHg 66%
    09:00 +26°C° 0 mm 1 mps 741 mmHg 59%
    10:00 +27°C° 0 mm 1 mps 741 mmHg 53%
    11:00 +29°C° 0 mm 1 mps 740 mmHg 50%
    12:00 +31°C° 0 mm 1 mps 740 mmHg 46%
    13:00 +32°C° 0 mm 1 mps 739 mmHg 43%
    14:00 +32°C° 0 mm 1 mps 738 mmHg 45%
    15:00 +32°C° 0 mm 1 mps 737 mmHg 48%
    16:00 +31°C° 0 mm 1 mps 736 mmHg 51%
    17:00 +29°C° 0 mm 1 mps 736 mmHg 58%
    18:00 +26°C° 0 mm 0 mps 736 mmHg 66%
    19:00 +24°C° 0 mm 0 mps 736 mmHg 73%
    20:00 +23°C° 0 mm 0 mps 737 mmHg 75%
    21:00 +23°C° 0 mm 0 mps 738 mmHg 77%
    22:00 +22°C° 0 mm 0 mps 739 mmHg 79%
    23:00 +22°C° 0 mm 0 mps 739 mmHg 81%

    Day after tomorrow, 24 February, Monday

    Time Temperature Precipitation Wind Pressure Humidity
    00:00 +21°C° 0 mm 0 mps 739 mmHg 83%
    01:00 +21°C° 0 mm 0 mps 738 mmHg 85%
    02:00 +21°C° 0 mm 0 mps 738 mmHg 86%
    03:00 +20°C° 0 mm 0 mps 738 mmHg 87%
    04:00 +20°C° 0 mm 0 mps 738 mmHg 88%
    05:00 +21°C° 0 mm 0 mps 738 mmHg 85%
    06:00 +22°C° 0 mm 0 mps 738 mmHg 82%
    07:00 +23°C° 0 mm 0 mps 739 mmHg 80%
    08:00 +26°C° 0 mm 0 mps 739 mmHg 70%
    09:00 +29°C° 0 mm 0 mps 739 mmHg 60%
    10:00 +32°C° 0 mm 0 mps 739 mmHg 50%
    11:00 +32°C° 0 mm 0 mps 738 mmHg 49%
    12:00 +32°C° 0 mm 0 mps 738 mmHg 48%
    13:00 +32°C° 0 mm 0 mps 737 mmHg 47%
    14:00 +31°C° 0 mm 0 mps 736 mmHg 51%
    15:00 +33°C° 0 mm 1 mps 735 mmHg 54%
    16:00 +32°C° 0 mm 1 mps 734 mmHg 58%
    17:00 +31°C° 0 mm 1 mps 734 mmHg 64%
    18:00 +27°C° 0 mm 0 mps 734 mmHg 70%
    19:00 +25°C° 0 mm 0 mps 734 mmHg 76%
    20:00 +25°C° 0 mm 0 mps 735 mmHg 77%
    21:00 +26°C° 0 mm 1 mps 736 mmHg 78%
    22:00 +26°C° 0 mm 1 mps 736 mmHg 80%
    23:00 +26°C° 0 mm 1 mps 736 mmHg 80%

    25 February, Tuesday

    Time Temperature Precipitation Wind Pressure Humidity
    00:00 +25°C° 0 mm 1 mps 736 mmHg 81%
    01:00 +25°C° 0 mm 1 mps 736 mmHg 82%
    02:00 +25°C° 0 mm 1 mps 736 mmHg 84%
    03:00 +25°C° 0 mm 1 mps 736 mmHg 86%
    04:00 +25°C° 0 mm 1 mps 736 mmHg 87%
    05:00 +25°C° 0 mm 1 mps 736 mmHg 86%
    06:00 +26°C° 0 mm 1 mps 737 mmHg 85%
    07:00 +27°C° 0 mm 1 mps 738 mmHg 83%
    08:00 +29°C° 0.2 mm 1 mps 738 mmHg 75%
    09:00 +31°C° 0.2 mm 1 mps 738 mmHg 67%
    10:00 +34°C° 0.2 mm 2 mps 738 mmHg 60%
    11:00 +32°C° 1.4 mm 2 mps 737 mmHg 68%
    12:00 +31°C° 1.4 mm 2 mps 736 mmHg 76%
    13:00 +31°C° 1.4 mm 2 mps 735 mmHg 85%
    14:00 +31°C° 0.5 mm 2 mps 735 mmHg 81%
    15:00 +31°C° 0.5 mm 1 mps 734 mmHg 77%
    16:00 +31°C° 0.5 mm 1 mps 733 mmHg 72%
    17:00 +30°C° 0 mm 1 mps 734 mmHg 78%
    18:00 +29°C° 0 mm 1 mps 734 mmHg 84%
    19:00 +25°C° 0 mm 0 mps 734 mmHg 90%
    20:00 +25°C° 0.1 mm 0 mps 735 mmHg 91%
    21:00 +24°C° 0.1 mm 0 mps 736 mmHg 93%
    22:00 +24°C° 0.1 mm 0 mps 737 mmHg 94%
    23:00 +24°C° 0.3 mm 0 mps 736 mmHg 94%

    26 February, Wednesday

    Time Temperature Precipitation Wind Pressure Humidity
    00:00 +24°C° 0.3 mm 0 mps 736 mmHg 94%
    01:00 +26°C° 0.3 mm 1 mps 736 mmHg 94%
    02:00 +25°C° 0.1 mm 1 mps 736 mmHg 95%
    03:00 +23°C° 0.1 mm 0 mps 735 mmHg 96%
    04:00 +23°C° 0.1 mm 0 mps 735 mmHg 97%
    05:00 +24°C° 0.1 mm 0 mps 736 mmHg 95%
    06:00 +24°C° 0.1 mm 0 mps 737 mmHg 94%
    07:00 +25°C° 0.1 mm 0 mps 738 mmHg 93%
    08:00 +26°C° 1.2 mm 0 mps 738 mmHg 90%
    09:00 +29°C° 1.2 mm 1 mps 738 mmHg 88%
    10:00 +31°C° 1.2 mm 1 mps 738 mmHg 86%
    11:00 +31°C° 1.6 mm 1 mps 738 mmHg 85%
    12:00 +31°C° 1.6 mm 1 mps 737 mmHg 85%
    13:00 +31°C° 1.6 mm 1 mps 736 mmHg 84%
    14:00 +31°C° 0.7 mm 1 mps 736 mmHg 80%
    15:00 +32°C° 0.7 mm 1 mps 735 mmHg 76%
    16:00 +30°C° 0.7 mm 0 mps 734 mmHg 72%
    17:00 +28°C° 0.1 mm 0 mps 735 mmHg 78%
    18:00 +27°C° 0.1 mm 0 mps 735 mmHg 83%
    19:00 +25°C° 0.1 mm 0 mps 735 mmHg 89%
    20:00 +25°C° 0.1 mm 0 mps 736 mmHg 90%
    21:00 +25°C° 0.1 mm 0 mps 736 mmHg 91%
    22:00 +24°C° 0.1 mm 0 mps 737 mmHg 92%
    23:00 +24°C° 0.4 mm 0 mps 737 mmHg 93%

    27 February, Thursday

    Time Temperature Precipitation Wind Pressure Humidity
    00:00 +24°C° 0.4 mm 0 mps 736 mmHg 94%
    01:00 +24°C° 0.4 mm 0 mps 736 mmHg 94%
    02:00 +26°C° 0.9 mm 1 mps 736 mmHg 95%
    03:00 +25°C° 0.9 mm 1 mps 736 mmHg 96%
    04:00 +25°C° 0.9 mm 1 mps 736 mmHg 98%
    05:00 +25°C° 0.4 mm 1 mps 736 mmHg 97%
    06:00 +25°C° 0.4 mm 1 mps 737 mmHg 97%
    07:00 +25°C° 0.4 mm 1 mps 738 mmHg 97%
    08:00 +26°C° 0.6 mm 1 mps 738 mmHg 97%
    09:00 +26°C° 0.6 mm 1 mps 739 mmHg 96%
    10:00 +26°C° 0.6 mm 1 mps 739 mmHg 96%
    11:00 +26°C° 1.9 mm 1 mps 739 mmHg 97%
    12:00 +26°C° 1.9 mm 1 mps 738 mmHg 98%
    13:00 +26°C° 1.9 mm 1 mps 738 mmHg 98%
    14:00 +25°C° 1.2 mm 1 mps 737 mmHg 98%
    15:00 +25°C° 1.2 mm 1 mps 737 mmHg 98%
    16:00 +25°C° 1.2 mm 1 mps 736 mmHg 98%
    17:00 +25°C° 0 mm 1 mps 737 mmHg 98%
    18:00 +25°C° 0 mm 1 mps 737 mmHg 99%
    19:00 +22°C° 0 mm 0 mps 737 mmHg 99%
    20:00 +24°C° 0 mm 1 mps 738 mmHg 99%
    21:00 +24°C° 0 mm 1 mps 738 mmHg 99%
    22:00 +24°C° 0 mm 1 mps 739 mmHg 99%
    23:00 +24°C° 0.2 mm 1 mps 739 mmHg 99%
    Show more